{"data":{"norad_id":66738,"intl_designator":"2025-276CA","name":"FLOCK 4H-35","alt_names":[],"object_type":"PAYLOAD","status":"ACTIVE","operator":null,"country":"US","launch_date":"2025-11-28","launch_site_code":"AFWTR","launch_vehicle":null,"mission":null,"orbit_class":"UNKNOWN","rcs_meters":null,"size_class":null,"mass_kg":null,"dimensions":null,"purposes":["earth_obs"],"wikipedia_slug":null,"has_3d_model":false,"image_url":null,"decayed_at":null,"tle_current":{"epoch":"2026-09-20T03:39:16.693056Z","epoch_age_seconds":52056,"freshness":"FRESH","line1":"1 66738U 25276CA  26263.15227654  .00003863  00000+0  17416-3 0  9994","line2":"2 66738  97.4116 335.4891 0001216  16.3174 343.8101 15.21623262 44160","mean_motion":15.21623262,"eccentricity":0.0001216,"inclination_deg":97.4116,"raan_deg":335.4891,"arg_perigee_deg":16.3174,"mean_anomaly_deg":343.8101,"bstar":0.00017416,"rev_number":4416,"period_min":94.635777196734,"perigee_km":500.10737891271,"apogee_km":501.78037138155,"semimajor_km":6879.0808751471,"source":"CELESTRAK","updated_at":"2026-09-20T09:00:34.754245Z"}}}